#timestamp,LO_Frequency,Hit,StdDev 
1597201215.0,286047000.9,N
1597201216.0,286047000.9,N
1597201235.8,286047000.0,N
1597201255.6,286047000.7,N
1597201275.5,286047001.2,N
1597201295.3,286047000.9,N
1597201315.1,286047001.1,N
1597201335.9,286046998.1,N
1597201355.7,286047001.2,N
1597201375.6,286046998.2,N
1597201395.4,286047001.2,N
1597201415.2,286047000.4,N
1597201435.1,286047000.4,N
1597201436.0,286047000.4,N
1597201455.8,286047000.6,N
1597201475.6,286046998.1,N
1597201495.5,286047001.0,N
1597201515.3,286047001.2,N
1597201535.2,286046998.4,N
1597201555.9,286047000.8,N
1597201575.7,286046998.5,N
1597201595.6,286046998.6,N
1597201615.4,286046998.5,N
1597201635.2,286047001.2,N
1597201655.1,286047000.2,N
1597201656.0,286047000.2,N
1597201675.8,286047000.0,N
1597201695.7,286047000.3,N
1597201715.5,286047000.5,N
1597201735.3,286047000.3,N
1597201755.2,286047000.0,N
1597201775.0,286047000.8,N
1597201775.9,286047000.8,N
1597201795.7,286046998.1,N
1597201815.6,286046998.8,N
1597201835.4,286046998.6,N
1597201855.3,286047001.1,N
1597201875.1,286046998.5,N
1597201895.8,286046998.3,N
1597201915.7,286046998.7,N
1597201935.5,286046998.7,N
1597201955.4,286046998.9,N
1597201975.2,286046998.5,N
1597201995.0,286046998.4,N
1597201995.9,286046998.4,N
1597202015.8,286047001.2,N
1597202035.6,286047000.8,N
1597202055.5,286047001.0,N
1597202075.3,286047000.9,N
1597202095.1,286047001.1,N
1597202115.9,286047001.2,N
1597202135.7,286047001.0,N
1597202155.5,286047001.1,N
1597202175.4,286047000.7,N
1597202195.2,286046998.5,N
1597202215.1,286046998.1,N
1597202216.0,286046998.1,N
1597202235.8,286046996.6,N
1597202255.7,286046999.2,N
1597202275.5,286046999.3,N
1597202295.3,286046999.5,N
1597202315.2,286046999.0,N
1597202335.9,286046999.2,N
1597202355.7,286046999.4,N
1597202375.6,286046997.0,N
1597202395.4,286046996.7,N
1597202415.2,286046997.4,N
1597202435.1,286046996.7,N
1597202436.0,286046996.7,N
1597202455.8,286046998.0,N
1597202475.7,286046995.3,Y
1597202495.5,286046997.4,P
1597202515.4,286046996.9,P
1597202535.2,286046999.2,N
1597202555.0,286046997.3,N
1597202555.9,286046997.3,N
1597202575.8,286046997.7,N
1597202595.6,286046995.4,Y
1597202615.5,286046999.5,P
1597202635.3,286046998.3,N
1597202655.1,286046999.6,N
1597202675.9,286046996.9,Y
1597202695.7,286047001.1,P
1597202715.6,286047000.5,N
1597202735.4,286046999.3,N
1597202755.2,286046999.6,N
1597202775.1,286046996.5,Y
1597202776.0,286046996.5,P
1597202795.8,286046998.8,N
1597202815.7,286046999.6,N
1597202835.5,286046999.4,N
1597202855.3,286046998.9,N
1597202875.2,286046996.9,N
1597202895.0,286046996.8,N
1597202895.9,286046996.8,N
1597202915.7,286046999.0,N
1597202935.6,286046998.7,N
1597202955.4,286046998.1,N
1597202975.3,286046998.2,N
1597202995.1,286046998.9,N
1597202996.0,286046998.9,N
1597203015.8,286046996.5,Y
1597203035.7,286046998.8,P
1597203055.5,286046998.2,P
1597203075.4,286046998.6,P
1597203095.2,286046998.2,Y
1597203115.0,286047000.4,P
1597203115.9,286047000.4,N
1597203135.8,286047002.8,P
1597203155.6,286047000.2,N
1597203175.4,286046999.9,N
1597203195.3,286047000.0,N
1597203215.1,286047000.6,N
1597203235.9,286047000.5,N
1597203255.7,286047000.0,N
1597203275.5,286047001.0,N
1597203295.4,286046998.5,N
1597203315.2,286046999.9,N
1597203335.1,286047001.1,N
1597203336.0,286047001.1,N
1597203355.8,286047001.0,N
1597203375.6,286047000.3,N
1597203395.5,286047000.0,N
1597203415.3,286046999.7,N
1597203435.2,286047000.4,N
1597203455.9,286047000.4,N
1597203475.7,286047000.0,N
1597203495.6,286046998.1,N
1597203515.4,286047000.7,N
1597203535.2,286047001.0,N
1597203555.1,286046998.6,N
1597203556.0,286046998.6,N
1597203575.8,286046998.2,N
1597203595.7,286047001.1,N
1597203615.5,286047000.8,N
1597203635.3,286046998.6,N
1597203655.2,286047000.4,N
1597203675.0,286046999.7,N
1597203675.9,286046999.7,N
1597203725.8,286046999.7,E
1597203735.7,286047002.2,N
1597203755.6,286047001.3,P
1597203775.4,286047002.6,P
1597203795.2,286047001.7,Y
1597203815.1,286046999.7,P
1597203816.0,286046999.7,N
1597203835.8,286047002.7,N
1597203855.7,286047002.3,N
1597203875.5,286047001.6,N
1597203895.3,286047002.0,N
1597203915.2,286047002.7,N
1597203935.0,286047002.8,N
1597203935.9,286047002.8,N
1597203955.8,286047002.1,N
1597203975.6,286047002.1,N
1597203995.4,286047002.1,N
1597204015.3,286047004.4,Y
1597204035.1,286047000.3,P
1597204055.9,286047000.4,N
1597204075.7,286047001.0,N
1597204095.5,286046999.9,N
1597204115.4,286047000.1,N
1597204135.2,286047000.9,N
1597204155.1,286047000.0,N
1597204156.0,286047000.0,N
1597204175.8,286047000.9,N
1597204195.6,286047000.0,N
1597204215.5,286047000.1,N
1597204235.3,286047000.2,N
1597204255.2,286047002.5,Y
1597204275.9,286046999.9,P
1597204295.7,286046999.8,N
1597204315.6,286047000.0,N
1597204335.4,286047000.6,N
1597204355.3,286046999.8,N
1597204375.1,286047000.1,N
1597204376.0,286047000.1,N
1597204395.8,286047000.4,N
1597204415.7,286047002.7,Y
1597204435.5,286047002.1,P
1597204455.3,286046999.8,N
1597204475.2,286047002.3,N
1597204495.0,286047000.0,N
1597204495.9,286047000.0,N
1597204515.8,286046999.8,N
1597204535.6,286046999.9,N
1597204555.4,286047002.7,N
1597204575.3,286046999.8,N
1597204595.1,286047001.9,N
1597204615.8,286047002.1,N
1597204635.7,286047002.4,N
1597204655.5,286047001.0,N
1597204675.4,286047000.1,N
1597204695.2,286047002.8,N
1597204715.0,286047002.2,N
1597204715.9,286047002.2,N
1597204735.8,286047004.4,Y
1597204755.6,286047002.8,P
1597204775.4,286047002.7,P
1597204795.3,286047000.4,N
